Welcome to the New NWS' Forecast!
Most changes are behind the scenes, but click here for differences you might notice.
Latest weather observations around

Everett Snohomish County (KPAE)

Using English Units (Switch to International System of Units)
Date/ Time (PDT) Wind (mph) Vis. (mi) Weather Sky Cond. Temp (°F) Rel. Humidity Wind Chill (°F) Heat Index (°F) Pressure Precip. (in)
Air Dwpt 6 hour Altimeter (inHg) Sea level (inHg) 1 hr 3 hr 6 hr
Max Min
Jul 18 12:34 WSW 11 10 Mostly Clear FEW021 67 55     66%     30.2        
Jul 18 12:11 SW 9 10 Mostly Cloudy BKN019 67 56     68%     30.2        
Jul 18 12:04 SW 10 10 Partly Cloudy SCT019 67 55     66%     30.21        
Jul 18 11:53 SW 8 10 Mostly Cloudy BKN019 65 55     70%     30.21 30.2      
Jul 18 10:53 SSW 8 10 Cloudy OVC018 63 55     75%     30.2 30.2      
Jul 18 10:26 SSW 6 10 Cloudy OVC016 63 56     78%     30.2        
Jul 18 09:53 SSW 6 10 Cloudy OVC014 60 55     83%     30.2 30.2      
Jul 18 08:53 SSW 9 10 Cloudy OVC014 60 55     83%     30.19 30.19      
Jul 18 07:53 SSW 6 10 Cloudy OVC014 60 55     83%     30.18 30.18      
Jul 18 07:16 S 7 10 Cloudy BKN012 OVC017 60 55     83%     30.17        
Jul 18 06:53 S 7 10 Cloudy OVC015 60 55     83%     30.17 30.16      
Jul 18 06:48 S 7 10 Cloudy OVC015 59 55     88%     30.16        
Jul 18 05:53 SSE 10 10 Cloudy OVC014 60 55     83%     30.14 30.14      
Jul 18 04:53 SSE 9 10 Clear   61 55     81%     30.13 30.12      
Jul 18 03:53 S 11 10 Cloudy OVC013 61 55     81%     30.12 30.11      
Jul 18 02:53   10 Cloudy OVC013 61 55     81%     30.11 30.1      
Jul 18 01:53 S 9 10 Cloudy OVC012 61 56     83%     30.1 30.09      
Jul 18 01:01 S 9 10 Mostly Cloudy BKN011 61 56     83%     30.1        
Jul 18 00:53 S 8 10 Partly Cloudy SCT011 60 56     86%     30.1 30.09      
Jul 17 23:53 Calm 10 Clear CLR 58 55     90%     30.09 30.08      
Jul 17 22:53 Calm 10 Clear CLR 59 56     90%     30.07 30.06      
Jul 17 21:53 NNW 6 10 Clear CLR 60 55     83%     30.05 30.04      
Jul 17 20:53 NNW 8 10 Clear CLR 61 56     83%     30.03 30.02      
Jul 17 19:53 NNW 7 10 Clear CLR 66 56     70%     30.02 30.01      
Jul 17 18:53 NW 9 10 Clear CLR 72 56     57%   72 30.01 30      
Jul 17 17:53 NNW 9 10 Clear CLR 74 55     52%   73 30.01 30      
Jul 17 16:53 WSW 8 10 Clear CLR 83 51     33%   81 30.02 30      
Jul 17 15:53 SSW 11 10 Clear CLR 81 52     37%   80 30.03 30.01      
Jul 17 14:53 SSW 13 10 Clear CLR 80 53     39%   80 30.04 30.02      
Jul 17 13:53 SSW 8 10 Clear CLR 80 53     39%   80 30.04 30.03      
Jul 17 12:53 SW 10 10 Clear CLR 78 54     43%   78 30.04 30.03      
Jul 17 11:53 SSW 7 10 Clear CLR 76 53     45%   75 30.05 30.04      
Jul 17 10:53 SW 6 10 Clear CLR 73 55     53%   73 30.05 30.04      
Jul 17 09:53 SSW 6 10 Clear CLR 72 56     57%   72 30.05 30.04      
Jul 17 08:53 SW 3 10 Clear CLR 69 54     59%     30.05 30.03      
Jul 17 07:53 Calm 10 Clear CLR 66 55     68%     30.04 30.03      
Jul 17 06:53 Calm 10 Clear CLR 64 54     70%     30.03 30.02      
Jul 17 05:53 Calm 10 Clear CLR 62 52     70%     30.02 30.01      
Jul 17 04:53 Calm 10 Clear CLR 62 52     70%     30.02 30.01      
Jul 17 03:53 Calm 10 Clear CLR 64 49     58%     30.01 30      
Jul 17 02:53 Calm 10 Clear CLR 68 48     49%     30.01 29.99      
Jul 17 01:53 N 5 10 Clear CLR 70 47     44%     30.01 29.99      
Jul 17 00:53 N 5 10 Clear CLR 68 50     53%     30 29.99      
Jul 16 23:53 Calm 10 Clear CLR 67 51     57%     30 29.99      
Jul 16 22:53 NNW 5 10 Clear CLR 67 51     57%     29.99 29.98      
Jul 16 21:53 NNW 3 10 Clear CLR 70 51     51%     30 29.98      
Jul 16 20:53 NW 3 10 Clear CLR 76 49     39%   75 29.98 29.97      
Jul 16 19:53 NW 6 10 Clear CLR 80 48     33%   79 29.98 29.97      
Jul 16 18:53 NW 6 10 Clear CLR 81 51     35%   80 29.98 29.97      
Jul 16 17:53 NNW 7 10 Clear CLR 82 52     35%   81 29.99 29.98      
Jul 16 16:53 NW 8 10 Clear CLR 82 53     37%   81 30 29.99      
Jul 16 15:53 5 10 Clear CLR 83 54     37%   82 30.01 30      
Jul 16 14:53 6 10 Clear CLR 83 54     37%   82 30.03 30.01      
Jul 16 13:53 SW 5 10 Clear CLR 80 54     41%   80 30.03 30.02      
Jul 16 12:53 WSW 6 10 Clear CLR 79 54     42%   79 30.04 30.03      
Jul 16 11:53 NW 5 10 Clear CLR 76 52     43%   75 30.05 30.04      
Jul 16 10:53 NNW 8 10 Clear CLR 75 50     41%   74 30.05 30.04      
Jul 16 09:53 NW 6 10 Clear CLR 71 51     49%   70 30.06 30.04      
Jul 16 08:53 WNW 5 10 Clear CLR 69 51     53%     30.05 30.04      
Jul 16 07:53 NNW 3 10 Clear CLR 67 51     57%     30.05 30.03      
Jul 16 06:53 NW 3 10 Clear CLR 63 50     63%     30.04 30.02      
Jul 16 04:53 NNW 3 10 Clear CLR 61 48     62%     30.02 30.01      
Jul 16 03:53 N 3 10 Clear CLR 61 49     64%     30.01 30      
Jul 16 02:53 NNW 3 10 Clear CLR 64 46     52%     30.01 29.99      
Jul 16 01:53 NNW 5 10 Clear CLR 66 45     47%     30.01 29.99      
Jul 16 00:53 N 5 10 Clear CLR 68 46     45%     30 29.99      
Jul 15 23:53 NNW 3 10 Clear CLR 66 48     52%     30 29.99      
Jul 15 22:53 NW 9 10 Clear CLR 68 47     47%     30 29.98      
Jul 15 21:53 NW 7 10 Clear CLR 73 47     39%   72 29.99 29.98      
Jul 15 20:53 WNW 8 10 Clear CLR 74 52     46%   73 29.98 29.97      
Jul 15 19:53 NW 7 10 Clear CLR 80 51     36%   79 29.97 29.96      
Jul 15 18:53 NW 7 10 Clear CLR 82 53     37%   81 29.97 29.96      
Jul 15 17:53 NW 8 10 Clear CLR 83 53     36%   82 29.98 29.97      
Jul 15 16:53 7 10 Clear CLR 85 53     34%   83 29.98 29.97      
Jul 15 15:53 7 10 Clear CLR 85 49     29%   83 30 29.99      
Jul 15 14:53 NNW 8 10 Clear CLR 84 52     33%   82 30.02 30      
Jul 15 13:53 NNW 8 10 Clear CLR 82 53     37%   81 30.02 30.01      
May 14 07:53 SE 3 10 Clear CLR 65 53     65%     29.97 29.96      
Notice The following observation data may not be complete
May 14 05:53 ESE 3 10 Clear CLR   51      %     29.96 29.95      
May 14 02:53 E 8 10 Clear CLR 63 52     67%     29.94 29.93      
May 13 04:53 NNW 7 10 Clear CLR 55 50     83%     29.97 29.97      
May 12 08:17 NNW 5 1.5 Fog/Mist SCT001 51 50     96%     30.19        
May 12 02:53 NNW 5 10 Clear CLR 50 48     93% 48   30.2 30.19      
May 12 01:53 NNW 5 10 Clear CLR 50 47     89% 48   30.2 30.2      
May 11 18:53 NW 6 10 Clear CLR 63 47     56%     30.21 30.21      
Jun 11 21:53 5 10 Clear CLR 56 49     77%     30 30      
Jun 11 20:53 NW 5 10 Clear   58 48     70%     30 29.99      
Jun 11 19:53 NW 6 10 Clear   63 45     52%     30 29.99      
Jun 11 11:53 WSW 7 10 Clear CLR 59 51     75%     30.05 30.05      
Jun 10 23:53 N 6 10 Clear   54 48     80%     29.95 29.95      
Jun 10 16:53 NW 7 10 Clear CLR 61 43     52%     29.87 29.87      
Notice The following observation data may not be complete
Jun 10 02:39   10 Cloudy BKN015 OVC080          %              
Jun 10 01:48   10 Cloudy FEW016 BKN070 OVC085 52 46     82%     29.87        
Jun 09 11:10 Calm 10 Cloudy FEW025 BKN031 OVC080 55 46     72%     29.89        
Jun 09 06:53 ESE 9 10 Cloudy OVC055 50 46     86% 46   29.91 29.91      
Jun 09 02:53 SSE 8 10 Mostly Cloudy BKN070 51 45     79%     29.95 29.94      
Jun 08 07:29 SSE 8 8 Light Rain SCT004 BKN009 BKN045 56 54     93%     29.64   0    
Jun 06 05:53 WNW 3 10 Clear CLR 52 48     86%     30.03 30.02      
Jun 05 22:53 5 10 Clear CLR 53 47     80%     30.08 30.08      
Jun 05 18:53 NW 7 10 Clear CLR 65 47     52%     30.07 30.07